Regional Weather Roundup
Issued by NWS Albany, NY

Home | Current Version | Previous Version | Graphics & Text | Print | Product List | Glossary On
Versions: 1 2 3 4 5 6 7 8 9 10 11 12 13 14 15 16 17 18 19 20 21 22 23 24 25 26 27 28 29 30 31 32 33 34 35 36 37 38 39 40 41 42 43 44 45 46 47 48 49 50
739
ASUS41 KALY 222110
RWRALY

NEW YORK STATE HOURLY WEATHER ROUNDUP
NATIONAL WEATHER SERVICE ALBANY NY
500 PM EDT MON MAY 22 2017

NOTE: "FAIR" INDICATES FEW OR NO CLOUDS BELOW 12,000 FEET WITH NO
SIGNIFICANT WEATHER AND/OR NO OBSTRUCTIONS TO VISIBILITY.

NYZ032-033-038>043-046>054-057>066-NYZ062>081-082-084-222200-
EAST


CITY           SKY/WX    TMP DP  RH WIND       PRES   REMARKS
ALBANY         LGT RAIN  57  53  86 S12       29.97S FOG
GLENS FALLS    NOT AVBL
POUGHKEEPSIE   LGT RAIN  57  55  93 SE5       29.98F FOG
NEWBURGH       CLOUDY    57  57 100 VRB6      30.00F FOG
MONTGOMERY     LGT RAIN  59  56  89 NE3       29.98F FOG
WHITE PLAINS   LGT RAIN  57  55  93 VRB7      29.98F FOG
ISLIP          LGT RAIN  59  59 100 S10       30.00F FOG
NEW YORK CITY  LGT RAIN  61  59  93 S8        29.98F FOG
CENTRAL PARK   LGT RAIN  59  59 100 MISG      30.01F FOG
$$

NYZ005>009-017-018-044>046-055-056-222200-
CENTRAL


CITY           SKY/WX    TMP DP  RH WIND       PRES   REMARKS
FULTON         CLOUDY    61  48  62 NW14G26   29.92R
SYRACUSE       PTSUNNY   62  57  83 N10       29.90R
ROME           MOSUNNY   61  58  90 E10       29.92F
ELMIRA         PTSUNNY   71  56  58 W7        29.89S
BINGHAMTON     CLOUDY    61  58  90 VRB6      29.93F
MONTICELLO     CLOUDY    54  54 100 E5        30.00F
$$

NYZ026>034-041>043-087-222200-
NORTH


CITY           SKY/WX    TMP DP  RH WIND       PRES   REMARKS
WATERTOWN      CLOUDY    58  52  80 SW14G23   29.91R
FORT DRUM      NOT AVBL
OGDENSBURG     CLOUDY    60  57  91 S7        29.87S
MASSENA        CLOUDY    59  58  96 SW8       29.88S
SARANAC LAKE   CLOUDY    53  52  96 SW8       29.90F
PLATTSBURGH    CLOUDY    54  51  90 SE9       29.91F
$$

NYZ001>004-010>016-019>021-085-222200-
WEST


CITY           SKY/WX    TMP DP  RH WIND       PRES   REMARKS
NIAGARA FALLS  PTSUNNY   62  43  49 SW21      29.96R
BUFFALO        PTSUNNY   57  41  55 SW23G33   29.97S
DUNKIRK        MOSUNNY   57  43  59 SW17G28   30.01S
JAMESTOWN      MOSUNNY   55  43  62 SW9G17    30.00F
WELLSVILLE     LGT RAIN  64  50  60 NW15      29.98R
ROCHESTER      PTSUNNY   60  41  49 W26G35    29.96R
PENN YAN       CLOUDY    63  50  62 NW12G20   29.92R
$$

             KEY
       WCI = WIND CHILL INDEX
       VSB = VISIBILITY
       HX  = HEAT INDEX
$$




USA.gov is the U.S. government's official web portal to all federal, state and local government web resources and services.